Weather History for Dothan, AL

Change the Weather History Date:

Monday, November 19, 2012

  Actual Average Record
Temperature  
Mean Temperature 56 °F 58 °F  
Max Temperature 69 °F 70 °F 83 °F (1942)
Min Temperature 42 °F 45 °F 20 °F (2014)
Degree Days  
Heating Degree Days 9 8  
Month to date heating degree days 158 113  
Since 1 July heating degree days 211 172  
Growing Degree Days 6 (Base 50)    
Moisture  
Dew Point 47 °F    
Average Humidity 73    
Maximum Humidity 93    
Minimum Humidity 50    
Precipitation  
Precipitation 0.00 in 0.16 in 1.64 in (1952)
Month to date precipitation 0.09 2.28  
Year to date precipitation 35.96 47.67  
Sea Level Pressure  
Sea Level Pressure 30.25 in    
Wind  
Wind Speed 6 mph (North)    
Max Wind Speed 10 mph    
Max Gust Speed -    
Visibility 10 miles    
Events      
T = Trace of Precipitation, MM = Missing Value Source: NWS Daily Summary

Daily Weather History Graph

Daily Weather History Graph

Search for Another Location

Airport:

Trip Planner

Search our weather history database for the weather conditions in past years. The results will help you decide how hot, cold, wet, or windy it might be!

Date:

Astronomy

Nov. 19, 2012 Rise Set
Actual Time 6:13 AM CST 4:41 PM CST
Civil Twilight 5:47 AM CST 5:07 PM CST
Nautical Twilight 5:17 AM CST 5:36 PM CST
Astronomical Twilight 4:48 AM CST 6:05 PM CST
Moon 11:23 AM CST (11/19) 10:57 PM CST (11/19)
Length of Visible Light 11h 19m
Length of Day
10h 28m
Waxing Crescent, 41% of the Moon is Illuminated
Nov 19
Waxing Crescent
Nov 20
First Quarter
Nov 28
Full
Dec 6
Last Quarter
Dec 13
New

Hourly Weather History & Observations

Time (CST) Temp. Windchill Dew Point Humidity Pressure Visibility Wind Dir Wind Speed Gust Speed Precip Events Conditions
12:53 AM 46.9 °F - 44.1 °F 90% 30.30 in 10.0 mi NE 6.9 mph - N/A   Clear
1:53 AM 46.9 °F - 44.1 °F 90% 30.30 in 10.0 mi NNE 4.6 mph - N/A   Clear
2:53 AM 44.1 °F 42.5 °F 42.1 °F 93% 30.29 in 10.0 mi NNE 3.5 mph - N/A   Clear
3:53 AM 42.1 °F 38.4 °F 39.9 °F 92% 30.29 in 10.0 mi NNE 5.8 mph - N/A   Clear
4:53 AM 43.0 °F 41.3 °F 41.0 °F 93% 30.29 in 10.0 mi NNE 3.5 mph - N/A   Clear
5:53 AM 43.0 °F 41.3 °F 41.0 °F 93% 30.30 in 10.0 mi NNE 3.5 mph - N/A   Clear
6:53 AM 46.0 °F 42.5 °F 43.0 °F 89% 30.30 in 10.0 mi NE 6.9 mph - N/A   Clear
7:53 AM 51.1 °F - 44.1 °F 77% 30.31 in 10.0 mi NE 5.8 mph - N/A   Clear
8:53 AM 57.9 °F - 46.0 °F 65% 30.30 in 10.0 mi ENE 8.1 mph - N/A   Clear
9:53 AM 61.0 °F - 46.9 °F 60% 30.30 in 10.0 mi ENE 4.6 mph - N/A   Clear
10:53 AM 64.0 °F - 48.0 °F 56% 30.27 in 10.0 mi North 4.6 mph - N/A   Clear
11:53 AM 66.9 °F - 48.0 °F 51% 30.25 in 10.0 mi North 9.2 mph - N/A   Clear
12:53 PM 68.0 °F - 48.9 °F 50% 30.22 in 10.0 mi NNW 10.4 mph - N/A   Clear
1:53 PM 66.0 °F - 50.0 °F 56% 30.21 in 10.0 mi NW 8.1 mph - N/A   Clear
2:53 PM 69.1 °F - 51.1 °F 53% 30.20 in 10.0 mi NW 10.4 mph - N/A   Clear
3:53 PM 68.0 °F - 51.1 °F 55% 30.19 in 10.0 mi North 9.2 mph - N/A   Scattered Clouds
4:53 PM 62.1 °F - 51.1 °F 67% 30.20 in 10.0 mi North 4.6 mph - N/A   Scattered Clouds
5:53 PM 57.9 °F - 50.0 °F 75% 30.20 in 10.0 mi North 3.5 mph - N/A   Clear
6:53 PM 60.1 °F - 51.1 °F 72% 30.20 in 10.0 mi NNW 3.5 mph - N/A   Overcast
7:53 PM 60.1 °F - 51.1 °F 72% 30.21 in 10.0 mi NW 5.8 mph - N/A   Overcast
8:53 PM 59.0 °F - 51.1 °F 75% 30.21 in 10.0 mi NW 3.5 mph - N/A   Overcast
9:53 PM 59.0 °F - 51.1 °F 75% 30.20 in 10.0 mi NNW 4.6 mph - N/A   Overcast
10:53 PM 59.0 °F - 51.1 °F 75% 30.20 in 10.0 mi NNW 4.6 mph - N/A   Overcast
11:53 PM 59.0 °F - 52.0 °F 78% 30.19 in 10.0 mi NE 3.5 mph - N/A   Overcast